Regional Weather Roundup
Issued by NWS Jackson, KY

Home | Current Version | Previous Version | Text Only | Print | Product List | Glossary Off
Versions: 1 2 3 4 5 6 7 8 9 10 11 12 13 14 15 16 17 18 19 20 21 22 23 24 25 26 27 28 29 30 31 32 33 34 35 36 37 38 39 40 41 42 43 44 45 46 47 48 49 50

521
ASUS43 KJKL 140510
RWRJKL

EAST KENTUCKY HOURLY WEATHER ROUNDUP
NATIONAL WEATHER SERVICE JACKSON KY
1200 AM EST SUN FEB 14 2016

NOTE: "FAIR" INDICATES FEW OR NO CLOUDS BELOW 12,000 FEET WITH
NO SIGNIFICANT WEATHER AND/OR OBSTRUCTIONS TO VISIBILITY.

* THESE REPORTS ARE NOT UNDER NWS QUALITY CONTROL AND MAY NOT
  REPORT WEATHER SUCH AS PRECIPITATION AND FOG.

KYZ079-080-083-085-087-088-110-112-115-119-120-140600
...EASTERN KENTUCKY...

CITY           SKY/WX    TMP DP  RH WIND       PRES   REMARKS
JACKSON        CLOUDY    14   1  56 NE3       30.42F
LONDON         CLOUDY    16   2  54 E5        30.41F WCI   9
SOMERSET*      CLOUDY    18   5  57 CALM      30.45F
MONTICELLO*    CLOUDY    15   9  76 NW7       30.45S WCI   5
WILLIAMSBURG*  CLOUDY    18   5  57 NE3       30.42S
MIDDLESBORO*   CLOUDY    16   8  72 CALM      30.43S
HARLAN APT*      N/A     14   7  73 CALM      30.39F
HAZARD APT*    CLEAR    -24 -29  76 CALM      30.43F
BLACK MTN*       N/A      1   0  92 N2          N/A
BIG SANDY*     CLEAR     11   0  62 NE5       30.44F WCI   3
MOREHEAD APT*  CLOUDY    12  -2  52 CALM      30.48S
$$

KYZ035-036-041-042-044-050-067-078-099-140600
...CENTRAL KENTUCKY...

CITY           SKY/WX    TMP DP  RH WIND       PRES   REMARKS
MT STERLING*   CLOUDY    14   5  67 E6        30.47F WCI   5
DANVILLE*      CLOUDY    18   7  62 E6        30.45F WCI   9
RICHMOND*      CLOUDY    14   7  73 NE3       30.44F
LEXINGTON      CLOUDY    16   3  56 E10       30.44F WCI   4
FRANKFORT      PTCLDY    17   2  51 NE7       30.45F WCI   8
$$

KYZ091>093-OHZ055-061-077-WVZ005-015-034-035-042-140600
...SOUTHERN OHIO/WEST VIRGINIA...

CITY           SKY/WX    TMP DP  RH WIND       PRES   REMARKS
COVINGTON      CLOUDY    13   4  67 CALM      30.46F
COLUMBUS       CLOUDY     7  -3  64 NW7       30.47S WCI  -5
DAYTON         CLOUDY     7  -1  70 NW5       30.47S WCI  -2
WILMINGTON     CLOUDY     3  -3  76 CALM      30.46S
HUNTINGTON       N/A     11  -1  58 CALM      30.49S
CHARLESTON       N/A      8  -1  66 CALM      30.48S
PINEVILLE*       N/A     -1  -5  80 MISG      30.43F
BECKLEY          N/A      3  -7  63 NW5       30.32F WCI  -6
$$

VAZ002-007-008-TNZ017-027-036-066-071-140600
...SOUTHWEST VIRGINIA/EAST TENNESSEE...

CITY           SKY/WX    TMP DP  RH WIND       PRES   REMARKS
BRISTOL        CLOUDY    14   5  67 CALM      30.39F
KNOXVILLE      CLEAR     21   7  54 NE7       30.40F WCI  12
OAK RIDGE      CLOUDY    22   5  48 NE3       30.43S
CROSSVILLE     CLOUDY    20   4  50 NE8       30.33F WCI  10
NASHVILLE      CLOUDY    27   3  35 E9        30.41F WCI  18
$$

...KEY TO REMARKS...
VSB - VISIBILITY IN MILES
WCI - WIND CHILL INDEX
HX  - HEAT INDEX

$$




USA.gov is the U.S. government's official web portal to all federal, state and local government web resources and services.